Vertical_Velocity
-2 1 -0 0 2 -3 1 -2 -3 1 0 0 -3 2 -3 1 2 -1 -1 -1 1 -2 -2 -1 -1 -3 -2 -4 0 -1 -1 0 0 0 2 1 0 -3 -2 -1 0 -0 -0 2 -1 -0 -1 0 1
4 -2 -4 0 -5 -2 0 -2 -1 -2 -1 1 2 1 -4 -4 3 -1 -2 2 1 -0 -2 -1 -2 -2 -2 -1 1 -0 -0 -1 -2 -1 -2 -1 -3 -1 -0 1 -3 -2 -0 -0 -0 -0 2 -1 -2
3 -5 -4 1 -3 -2 -0 -3 1 -2 -1 -2 -4 -0 -1 -6 4 -1 1 1 1 0 -2 -0 -1 -1 5 3 5 -1 -1 -2 -1 -1 -1 -2 -2 -2 -1 -2 -1 -0 -0 -0 -0 2 0 -0 1
-4 -2 -1 4 -3 1 3 -2 -3 -1 -0 -3 -2 3 -3 2 -4 0 2 2 1 -0 0 1 -1 -0 2 1 -0 1 2 1 0 -2 -2 -2 -2 -2 -1 -1 -1 -1 0 -0 -0 2 0 -0 1
-3 3 2 1 4 -3 3 2 -2 -1 -2 -2 -2 2 -2 3 -3 1 1 2 1 -1 -1 0 -1 -2 -1 -0 -0 2 1 -2 -2 -0 -1 -1 -1 -0 -1 1 -2 -0 -2 1 -0 5 0 3 2
2 4 -1 -4 -6 -6 0 -2 -1 2 4 2 -2 -0 4 3 -1 1 4 1 -2 -1 0 1 -1 -2 -1 2 -0 -1 -1 -1 -1 -1 -3 -2 -1 -0 -1 0 -1 0 -3 -1 -2 -0 -2 1 1
-5 -0 -1 5 -1 1 -4 -1 -2 -3 6 0 -1 -1 6 5 -2 2 0 -1 -2 -2 -0 -0 0 -1 -2 -0 0 -0 -1 -1 0 -3 -2 -1 -1 -1 -0 -1 -3 -1 -2 1 -0 -2 1 -5 -3
-7 -3 -5 -0 -3 1 -3 -3 5 0 0 1 0 -1 -1 2 1 -0 0 0 -1 -2 0 1 1 1 -0 -1 -0 -1 -1 1 1 -1 0 -0 -0 -1 -0 1 0 -1 -1 3 2 -1 -2 -5 1
2 -2 -8 -0 1 2 -3 -7 0 -1 -5 2 -2 -1 -1 1 -1 -0 2 1 -1 -1 0 2 1 -2 1 1 0 -0 -0 -1 -2 -3 -1 -1 -1 1 -1 -3 -1 1 0 -2 -0 -0 2 10 5
-3 1 -4 3 1 -7 -1 -3 -0 -1 1 -4 -1 -0 1 3 1 3 0 -1 -0 1 -0 1 3 -0 -2 -0 1 2 1 -1 -3 0 1 1 -1 1 -2 -2 1 1 1 -3 1 -1 -1 -1 -2
1 -5 0 -4 5 7 -3 -3 1 1 6 -2 0 0 2 2 1 -2 -1 -2 -2 1 1 1 3 1 -1 -0 1 2 1 -0 -1 1 1 -1 -0 2 -2 -1 1 2 -0 1 -0 1 -0 -1 -2
8 -1 -5 -4 -1 1 1 4 2 2 2 4 1 -0 -1 -1 1 -2 -2 -1 -1 -0 1 0 3 0 -1 -2 0 1 -0 1 1 1 1 -0 1 1 -0 0 -1 0 1 1 -0 1 2 -2 0
-5 -1 1 -6 -2 -1 -0 2 -2 -2 -1 6 2 -0 -2 -2 -0 -0 -0 0 2 0 -1 -2 -0 2 1 -2 1 1 -1 -1 2 -0 -1 -2 0 2 1 3 1 -0 1 -0 -1 1 1 2 -1
-4 6 -1 -5 -3 5 0 3 -4 1 -2 2 3 2 -2 -5 -3 -1 -2 -0 0 0 0 -2 0 3 4 -3 0 2 -2 -3 -3 0 -2 -1 -1 -1 -0 2 0 -1 -1 0 0 -2 -3 0 2
-2 -1 4 2 -2 1 -4 -2 -4 -0 -0 -1 -0 1 2 4 -0 2 -1 -1 -1 -2 1 2 0 -1 -1 -0 -1 1 2 0 -2 -1 0 -0 -2 -3 -2 -0 -1 -1 -0 -1 -1 -0 -2 -3 -2
-3 3 1 3 1 1 -0 1 -1 -0 -2 -1 -2 0 7 4 4 2 2 1 0 1 -2 1 0 2 2 1 1 1 -1 -1 -2 -1 -1 -1 0 -1 -1 0 -3 -2 1 -2 -3 -2 -3 -3 -2
0 0 2 6 1 2 -2 -1 1 -2 -4 -4 -1 -0 2 2 2 3 1 2 2 1 0 -1 -1 1 1 0 3 -1 -1 0 1 -2 1 -0 2 1 1 -1 -2 -3 -1 0 0 -2 -1 -0 -1
2 2 -3 2 0 4 1 4 -3 -2 -4 -5 -2 -1 0 1 3 1 -1 1 1 2 2 2 1 3 1 1 -0 0 2 2 4 2 1 1 2 2 -0 -0 -1 -1 2 1 1 2 0 -1 -1
2 -4 -0 -0 -1 3 1 4 -1 3 -2 -4 0 -1 1 1 -0 2 1 -1 0 1 4 2 1 2 3 1 1 2 0 -1 2 1 2 -0 -2 1 1 0 -0 -1 -3 -2 1 -1 1 -1 -2
-2 -2 -2 -2 2 4 -0 -0 7 0 -3 -1 -2 -1 -0 -6 -1 2 -1 1 3 -1 -1 1 1 1 1 2 0 1 1 0 -2 -2 -2 1 2 1 2 2 1 0 0 -1 -0 1 -0 1 1
2 -4 1 -6 -4 -5 -1 1 3 6 2 -1 -3 -4 1 8 7 3 3 -3 -1 -2 -1 -3 -0 1 -1 -0 -2 -0 1 3 1 0 -1 1 1 0 -1 1 1 -1 -1 2 3 1 1 0 -1
2 -1 -1 -1 -3 -1 -2 2 5 1 4 -4 -7 -5 12 -19 -29 -3 -5 -4 -1 -11 -3 1 1 3 1 -0 -0 -1 1 2 3 -1 1 2 2 2 0 1 -0 1 1 1 2 2 2 2 4
-0 -1 -1 -4 -3 -3 -3 3 5 -1 5 -5 1 -2 10 -0 -3 -7 -5 -4 1 -5 -5 -9 4 4 2 3 1 -1 0 0 0 -0 2 1 -1 0 -1 -1 -0 -1 -1 0 2 0 1 0 1
1 -0 1 0 -4 -3 -7 3 5 -1 4 -3 1 5 6 9 6 6 19 4 1 -1 -4 -4 -9 -0 -2 -1 1 3 2 1 0 1 0 4 2 1 1 -0 2 2 -0 0 -2 -2 -1 -2 -0
-0 -0 -2 -0 5 2 -6 -3 10 -10 1 -5 -1 1 1 5 0 -1 16 4 3 5 10 0 -5 -9 5 -1 4 -1 3 4 1 1 1 2 2 1 -0 -5 -4 10 9 7 6 4 4 7 -2
-1 -0 -2 3 -5 -1 -5 -4 -10 3 -4 -11 -4 -9 3 6 -2 -4 -1 -2 3 6 -41 -4 -7 -17 -3 -14 -15 -10 2 10 6 5 3 -1 -0 3 5 4 -1 1 2 7 4 1 4 3 -3
-0 -0 3 -0 0 -2 -2 -3 -13 -1 0 -8 -15 -1 2 -1 -0 -9 -3 0 5 3 -0 22 27 28 22 11 -6 1 -11 -6 3 2 5 3 1 9 -4 0 -0 -4 35 14 7 5 -1 8 1
0 -1 4 -0 -3 -1 -3 -3 -8 -3 -3 -2 0 -3 -5 0 4 -1 -3 -5 -1 4 -0 11 -23 -8 26 -14 18 -7 -7 -3 -2 -1 2 2 1 -4 -2 2 -0 2 -4 -9 5 6 4 3 3
1 0 0 -1 -3 -2 -2 -0 4 -5 -3 0 9 3 -6 -0 1 3 4 6 2 6 -0 28 -10 -11 -7 -3 -22 -0 4 2 4 -1 18 2 1 -3 -4 5 2 -5 6 1 -12 -3 5 -7 -1
-4 -7 -2 -2 -0 -2 1 -3 12 -5 -12 -6 8 9 2 -8 -5 -6 -1 1 -1 -3 3 -1 -4 -11 -5 0 -8 2 1 1 7 1 10 5 -4 -2 -4 24 2 -0 -0 4 -1 -12 12 -2 -4
Height
5902 5901 5902 5905 5908 5904 5906 5905 5904 5905 5906 5905 5903 5905 5904 5905 5907 5908 5906 5906 5907 5905 5905 5905 5905 5904 5904 5904 5905 5909 5913 5913 5915 5918 5919 5919 5919 5920 5920 5920 5921 5921 5921 5921 5921 5921 5922 5922 5922
5909 5907 5906 5906 5907 5906 5906 5905 5905 5905 5907 5907 5906 5905 5904 5906 5908 5908 5908 5908 5908 5907 5906 5906 5906 5906 5906 5903 5904 5910 5913 5915 5917 5918 5919 5920 5921 5923 5922 5923 5924 5923 5924 5924 5924 5924 5925 5925 5924
5913 5911 5910 5909 5909 5910 5911 5908 5908 5909 5908 5907 5906 5908 5908 5908 5910 5909 5910 5909 5908 5907 5908 5908 5908 5908 5907 5908 5909 5913 5915 5917 5920 5921 5922 5923 5924 5925 5925 5926 5925 5926 5926 5926 5927 5927 5927 5926 5926
5914 5915 5914 5913 5913 5914 5914 5913 5911 5912 5912 5910 5909 5910 5911 5912 5911 5911 5912 5911 5909 5908 5908 5909 5910 5910 5910 5912 5914 5916 5919 5922 5923 5923 5925 5927 5927 5927 5928 5928 5927 5929 5929 5930 5929 5928 5929 5928 5929
5917 5918 5918 5917 5914 5915 5915 5917 5916 5915 5914 5913 5912 5912 5913 5914 5912 5913 5913 5913 5911 5909 5908 5909 5912 5914 5914 5917 5919 5921 5922 5924 5926 5926 5927 5928 5929 5930 5930 5930 5930 5932 5932 5931 5931 5929 5930 5930 5931
5922 5921 5917 5918 5917 5918 5919 5918 5917 5917 5918 5916 5914 5915 5917 5917 5915 5916 5915 5913 5912 5911 5910 5911 5914 5917 5918 5920 5923 5924 5926 5927 5928 5929 5930 5932 5932 5933 5933 5934 5935 5935 5934 5933 5933 5933 5933 5932 5932
5921 5921 5920 5921 5920 5920 5920 5919 5918 5918 5921 5920 5918 5918 5921 5920 5918 5918 5917 5914 5915 5915 5914 5915 5918 5920 5923 5924 5926 5927 5929 5930 5931 5933 5933 5934 5935 5936 5935 5936 5937 5937 5936 5934 5934 5935 5934 5933 5932
5927 5924 5923 5924 5923 5924 5921 5920 5922 5922 5922 5923 5921 5920 5921 5922 5920 5919 5919 5918 5918 5919 5919 5920 5921 5924 5926 5928 5930 5931 5933 5933 5935 5936 5936 5937 5937 5937 5938 5939 5939 5939 5937 5936 5936 5936 5934 5933 5932
5932 5930 5927 5927 5929 5928 5924 5923 5924 5926 5924 5926 5924 5922 5923 5924 5923 5922 5922 5922 5923 5923 5924 5925 5925 5928 5930 5931 5933 5934 5935 5936 5937 5938 5939 5939 5939 5939 5940 5940 5941 5941 5939 5937 5937 5936 5936 5933 5929
5936 5934 5932 5932 5931 5927 5927 5925 5928 5929 5929 5928 5928 5926 5928 5928 5928 5927 5926 5925 5927 5928 5929 5929 5931 5932 5932 5934 5936 5937 5938 5939 5941 5942 5941 5941 5941 5940 5941 5941 5942 5942 5941 5939 5940 5939 5938 5935 5932
5939 5936 5935 5934 5935 5935 5932 5930 5932 5932 5933 5931 5930 5930 5930 5930 5931 5929 5928 5929 5930 5931 5932 5933 5934 5936 5936 5937 5939 5940 5941 5942 5943 5944 5943 5943 5943 5942 5941 5942 5943 5943 5942 5941 5941 5941 5940 5938 5935
5944 5944 5941 5938 5937 5938 5937 5936 5935 5935 5935 5935 5933 5933 5932 5932 5932 5932 5931 5932 5933 5934 5935 5936 5938 5939 5939 5940 5941 5943 5944 5945 5945 5945 5945 5944 5944 5943 5943 5944 5944 5944 5943 5942 5941 5942 5942 5941 5940
5945 5951 5947 5943 5943 5941 5941 5939 5937 5936 5935 5936 5935 5934 5933 5933 5933 5933 5933 5934 5936 5936 5937 5938 5940 5942 5942 5942 5943 5944 5945 5945 5946 5946 5946 5946 5945 5945 5945 5945 5945 5945 5945 5943 5943 5943 5943 5942 5940
5951 5953 5952 5950 5948 5948 5947 5944 5940 5939 5938 5939 5938 5937 5935 5934 5934 5935 5934 5936 5937 5939 5940 5940 5942 5943 5944 5943 5943 5945 5945 5944 5946 5947 5947 5947 5946 5946 5946 5947 5946 5946 5945 5945 5945 5944 5944 5943 5941
5956 5957 5957 5955 5952 5952 5949 5947 5944 5943 5941 5941 5940 5941 5939 5938 5938 5938 5938 5938 5939 5939 5941 5942 5943 5944 5943 5944 5945 5947 5946 5946 5947 5947 5947 5947 5947 5947 5948 5947 5946 5946 5946 5947 5946 5945 5943 5943 5942
5958 5959 5959 5957 5956 5954 5954 5952 5949 5946 5944 5943 5942 5943 5944 5943 5942 5942 5941 5941 5941 5942 5943 5943 5943 5944 5945 5946 5946 5948 5947 5947 5948 5949 5949 5949 5950 5949 5949 5949 5947 5947 5946 5946 5945 5944 5943 5944 5942
5962 5961 5962 5962 5961 5959 5957 5956 5954 5951 5947 5946 5946 5946 5946 5946 5945 5945 5944 5944 5944 5945 5945 5946 5945 5945 5946 5946 5947 5948 5949 5949 5950 5950 5950 5951 5951 5951 5949 5948 5947 5947 5947 5948 5947 5946 5946 5944 5943
5963 5963 5963 5963 5964 5963 5961 5960 5957 5955 5952 5950 5951 5950 5950 5949 5948 5947 5946 5945 5946 5946 5947 5947 5947 5947 5947 5947 5947 5948 5949 5950 5951 5950 5950 5948 5948 5948 5948 5948 5948 5948 5948 5947 5947 5948 5948 5946 5943
5963 5962 5963 5964 5964 5965 5965 5963 5960 5959 5957 5956 5955 5956 5955 5953 5952 5952 5950 5949 5948 5948 5949 5948 5947 5948 5947 5948 5948 5948 5948 5949 5949 5948 5948 5947 5947 5948 5947 5947 5948 5946 5945 5945 5946 5945 5946 5943 5943
5962 5963 5964 5965 5964 5965 5966 5964 5964 5963 5961 5959 5957 5958 5958 5957 5955 5955 5954 5953 5953 5951 5950 5949 5948 5948 5948 5948 5947 5946 5946 5946 5946 5946 5946 5946 5946 5945 5945 5944 5944 5945 5944 5943 5943 5942 5943 5942 5941
5962 5963 5964 5965 5964 5964 5965 5965 5965 5966 5965 5961 5959 5958 5959 5958 5956 5955 5957 5956 5954 5952 5952 5951 5950 5949 5948 5947 5947 5947 5947 5946 5945 5944 5944 5945 5945 5944 5942 5941 5941 5941 5941 5941 5941 5940 5940 5939 5939
5962 5962 5963 5963 5964 5964 5964 5965 5966 5966 5966 5962 5960 5959 5957 5955 5956 5954 5952 5952 5954 5954 5951 5951 5952 5951 5950 5947 5947 5947 5947 5947 5945 5942 5942 5942 5942 5942 5941 5940 5938 5937 5937 5937 5937 5936 5936 5936 5936
5962 5962 5963 5964 5964 5965 5965 5965 5967 5966 5966 5963 5960 5960 5959 5956 5955 5955 5956 5954 5957 5955 5955 5952 5952 5954 5953 5951 5949 5947 5946 5945 5943 5942 5942 5942 5941 5940 5939 5938 5936 5934 5933 5932 5931 5930 5930 5930 5930
5963 5963 5963 5963 5964 5964 5965 5966 5967 5966 5966 5964 5961 5961 5960 5956 5955 5954 5954 5955 5957 5958 5957 5955 5953 5952 5952 5951 5950 5949 5947 5944 5942 5941 5940 5940 5939 5937 5935 5933 5931 5929 5929 5928 5928 5928 5927 5927 5927
5962 5963 5963 5964 5963 5964 5964 5965 5966 5964 5966 5965 5962 5960 5957 5957 5954 5953 5951 5954 5955 5955 5954 5952 5951 5949 5949 5949 5950 5950 5948 5947 5944 5941 5938 5936 5934 5932 5929 5928 5928 5928 5927 5925 5924 5922 5921 5921 5922
5959 5962 5963 5963 5962 5962 5963 5964 5963 5963 5965 5965 5963 5960 5959 5958 5954 5952 5952 5952 5953 5952 5949 5950 5949 5946 5945 5944 5940 5938 5941 5943 5942 5941 5938 5934 5931 5927 5925 5926 5925 5925 5924 5921 5920 5920 5920 5917 5917
5958 5960 5962 5961 5959 5959 5960 5961 5960 5962 5963 5962 5962 5961 5960 5958 5956 5954 5954 5952 5953 5951 5948 5946 5946 5943 5941 5938 5939 5937 5934 5938 5937 5936 5934 5930 5927 5924 5924 5923 5922 5919 5914 5913 5912 5913 5913 5914 5911
5955 5958 5960 5958 5957 5956 5957 5958 5958 5959 5960 5960 5961 5960 5959 5957 5954 5952 5951 5950 5949 5949 5948 5940 5924 5926 5919 5930 5933 5934 5931 5931 5932 5930 5930 5927 5921 5920 5920 5918 5916 5914 5905 5902 5903 5903 5901 5906 5907
5952 5954 5955 5956 5955 5953 5954 5958 5958 5958 5958 5960 5962 5961 5958 5956 5955 5953 5951 5949 5947 5947 5944 5935 5934 5927 5913 5912 5923 5926 5924 5928 5928 5924 5923 5922 5917 5915 5914 5913 5911 5908 5903 5896 5892 5890 5892 5895 5900
5946 5948 5950 5952 5953 5952 5953 5956 5958 5954 5956 5958 5960 5958 5957 5955 5953 5952 5949 5946 5943 5940 5937 5932 5925 5923 5922 5920 5920 5920 5924 5923 5921 5920 5919 5918 5913 5910 5910 5909 5906 5903 5897 5889 5881 5882 5884 5884 5892